Regional Weather Roundup
Issued by NWS New Orleans/Baton Rouge, LA

Home | Current Version | Previous Version | Text Only | Print | Product List | Glossary Off
Versions: 1 2 3 4 5 6 7 8 9 10 11 12 13 14 15 16 17 18 19 20 21 22 23 24 25 26 27 28 29 30 31 32 33 34 35 36 37 38 39 40 41 42 43 44 45 46 47 48 49 50

660
ASUS44 KLIX 172107
RWRLIX
NEW ORLEANS REGIONAL WEATHER ROUNDUP
NATIONAL WEATHER SERVICE NEW ORLEANS LA
400 PM CDT FRI APR 17 2015

NOTE: "FAIR" INDICATES FEW OR NO CLOUDS BELOW 12,000 FEET WITH NO
      SIGNIFICANT WEATHER AND/OR OBSTRUCTIONS TO VISIBILITY.
      SKY/WX - SKY CONDITION AND SIGNIFICANT WEATHER.
      TMP - AIR TEMPERATURE.     DP    - DEWPOINT TEMPERATURE.
      RH  - RELATIVE HUMIDITY.   PRES  - PRESSURE.
      HI  - HEAT INDEX.          WCI   - WIND CHILL INDEX.

*  THESE STATIONS ARE NOT NWS OR FAA STATIONS AND ARE NOT UNDER
   NWS QUALITY CONTROL.

LAZ038-040-048-061>063-065>067-069-172200-
SOUTHEAST LOUISIANA

CITY           SKY/WX    TMP DP  RH WIND       PRES   REMARKS
N.O. AUDUBON     N/A     83  75  75 MISG        N/A
N.O. INTL ARPT MOSUNNY   82  69  64 W8        29.91F
N.O. LAKEFRONT SUNNY     82  70  66 NW5       29.92F
SLIDELL        SUNNY     81  69  67 SW5       29.90F
BATON ROUGE    PTSUNNY   83  67  58 W7        29.92F
BOOTHVILLE     SUNNY     79  71  76 SW12      29.93S
BELLE CHASSE   PTSUNNY   81  69  67 W7        29.92F
BOGALUSA*        N/A     85  66  52 SW7       29.91F
GALLIANO*      MOCLDY    82  68  63 MISG      29.94S
NEW ROADS*       N/A     83  67  59 SW6       29.92F
GONZALES*      MOCLDY    82  69  65 SW6       29.92S
HAMMOND*       PTSUNNY   86  64  48 NW7       29.93F
HOUMA*         PTSUNNY   81  72  74 NW7       29.93F
PORT FOURCHON* PTCLDY    79  68  69 W8        29.96S

$$

MSZ070-080>082-172200-
SOUTHERN MISSISSIPPI

CITY           SKY/WX    TMP DP  RH WIND       PRES   REMARKS
MCCOMB         MOSUNNY   82  67  60 W9        29.91F
GULFPORT       MOSUNNY   82  71  69 W8        29.90F
BILOXI         MOSUNNY   80  72  75 W12       29.90F
PASCAGOULA     MOSUNNY   81  71  71 SW12G17   29.91F
STENNIS ARPT*  MOSUNNY   82  66  57 MISG      29.91F

$$

COASTAL OBSERVATIONS
LAKE AND NEARSHORE STATIONS

STATION/POSITION TIME  TEMP    WIND        PRES    WAVE
                       AIR SEA DIR/SP/G            HT/PER
                 (UTC) (F)     (DEG/KT/KT) (MB)    (FT/S)
PASCAGOULA       2000   76     250/ 13/ 17 1013.1
WAVELAND YACHT   2000   78 73  230/  6/ 10 1013.3
GRAND ISLE       2000   77 76  300/  2/  4 1013.5
SOUTHWEST PASS   2000   80 63  220/  5/  6 1013.9
NEW CANAL        2000          340/  3/  6 1013.9
SHELL BEACH      2000   78 75  240/ 12/ 14 1012.9

OFFSHORE STATIONS

STATION/POSITION TIME  TEMP    WIND        PRES    WAVE
                       AIR SEA DIR/SP/G            HT/PER
                 (UTC) (F)     (DEG/KT/KT) (MB)    (FT/S)
64 S DAUPHIN ISL 2050   75 75  230/  8/  8 1013.5    4/ 6

$$




USA.gov is the U.S. government's official web portal to all federal, state and local government web resources and services.